Regional Weather Roundup
Issued by NWS Little Rock, AR

Home | Current Version | Previous Version | Graphics & Text | Print | Product List | Glossary On
Versions: 1 2 3 4 5 6 7 8 9 10 11 12 13 14 15 16 17 18 19 20 21 22 23 24 25 26 27 28 29 30 31 32 33 34 35 36 37 38 39 40 41 42 43 44 45 46 47 48 49 50
000
ASUS44 KLZK 270605
RWRLZK

WEATHER ROUNDUP FOR ARKANSAS
NATIONAL WEATHER SERVICE LITTLE ROCK AR
1200 AM CST TUE JAN 27 2015

NOTE: "FAIR" INDICATES FEW OR NO CLOUDS BELOW 12,000 FEET WITH NO
SIGNIFICANT WEATHER AND/OR OBSTRUCTIONS TO VISIBILITY.

ARZ001-003-010-029-270700-
NORTHWEST ARKANSAS

CITY           SKY/WX    TMP DP  RH WIND       PRES   REMARKS
FAYETTEVILLE   CLEAR     33  31  92 S6        30.04R WCI  28
6HR MIN TEMP:  33; 6HR MAX TEMP:  52;

FORT SMITH     CLEAR     45  35  68 CALM      30.04R
6HR MIN TEMP:  42; 6HR MAX TEMP:  58;

HARRISON       CLEAR     50  35  56 W9        30.00R
6HR MIN TEMP:  49; 6HR MAX TEMP:  54;

BENTONVILLE    CLEAR     39  30  70 CALM      30.03S
6HR MIN TEMP:  39; 6HR MAX TEMP:  52;

ROGERS         CLEAR     46  34  62 CALM      30.03S
6HR MIN TEMP:  46; 6HR MAX TEMP:  53;

SILOAM SPGS    CLEAR     43  30  61 CALM      30.04S
6HR MIN TEMP:  41; 6HR MAX TEMP:  52;

HIGHFILL       CLEAR     41  32  70 W5        30.02S
6HR MIN TEMP:  41; 6HR MAX TEMP:  51;

$$

ARZ004-005-016-270700-
NORTH CENTRAL ARKANSAS

CITY           SKY/WX    TMP DP  RH WIND       PRES   REMARKS
BATESVILLE     CLEAR     48  34  57 W3        29.96S
6HR MIN TEMP:  45; 6HR MAX TEMP:  52;

FLIPPIN        CLEAR     45  30  57 SW5       29.98S
6HR MIN TEMP:  45; 6HR MAX TEMP:  55;

MTN HOME       CLEAR     46  35  65 W3        29.97S
6HR MIN TEMP:  46; 6HR MAX TEMP:  54;

$$

ARZ040-041-270700-
WEST CENTRAL ARKANSAS

CITY           SKY/WX    TMP DP  RH WIND       PRES   REMARKS
MENA           CLEAR     45  37  76 CALM      30.04S
MOUNT IDA      CLEAR     50  36  58 CALM      30.00S
6HR MIN TEMP:  48; 6HR MAX TEMP:  58;

$$

ARZ009-017-025-026-028-270700-
NORTHEAST ARKANSAS

CITY           SKY/WX    TMP DP  RH WIND       PRES   REMARKS
CORNING        FAIR      36  32  87 W7        29.95S
JONESBORO      CLEAR     44  34  67 W8        29.95S
6HR MIN TEMP:  39; 6HR MAX TEMP:  46;

NEWPORT        CLEAR     44  33  65 W5        29.98R
6HR MIN TEMP:  44; 6HR MAX TEMP:  49;

WALNUT RIDGE   CLEAR     43  30  61 W6        29.95S
6HR MIN TEMP:  39; 6HR MAX TEMP:  45;

BLYTHEVILLE    CLEAR     39  34  82 W6        29.94S
6HR MIN TEMP:  34; 6HR MAX TEMP:  43;

$$

ARZ022-023-033-042-044-270700-
CENTRAL ARKANSAS

CITY           SKY/WX    TMP DP  RH WIND       PRES   REMARKS
LITTLE ROCK    CLEAR     46  34  62 W9        30.00F
6HR MIN TEMP:  46; 6HR MAX TEMP:  57;

N LITTLE ROCK  CLEAR     52  38  59 W6        30.00F
6HR MIN TEMP:  51; 6HR MAX TEMP:  54;

JACKSONVILLE   CLEAR     49  35  58 W8        29.98F
6HR MIN TEMP:  42; 6HR MAX TEMP:  50;

SEARCY         CLEAR     42  34  73 W3        29.99S
6HR MIN TEMP:  36; 6HR MAX TEMP:  52;

HOT SPRINGS    CLEAR     44  36  73 NW3       30.02S
6HR MIN TEMP:  44; 6HR MAX TEMP:  58;

RUSSELLVILLE   CLEAR     36  33  89 CALM      30.01R
6HR MIN TEMP:  36; 6HR MAX TEMP:  55;

CLINTON        FAIR      32  30  93 CALM      30.02R
$$

ARZ036-270700-
EAST ARKANSAS

CITY           SKY/WX    TMP DP  RH WIND       PRES   REMARKS
WEST MEMPHIS   CLEAR     37  34  89 CALM      29.94F
6HR MIN TEMP:  37; 6HR MAX TEMP:  47;

$$

ARZ050-053-066-070-073-270700-
SOUTHWEST ARKANSAS

CITY           SKY/WX    TMP DP  RH WIND       PRES   REMARKS
ARKADELPHIA    FAIR      40  38  93 CALM      30.04S
6HR MIN TEMP:  40; 6HR MAX TEMP:  52;

CAMDEN         CLEAR     37  32  81 MISG      30.04S
TEXARKANA      CLEAR     48  36  63 W3        30.05S
6HR MIN TEMP:  46; 6HR MAX TEMP:  57;

EL DORADO      CLEAR     48  35  60 SW5       30.04F
6HR MIN TEMP:  40; 6HR MAX TEMP:  53;

DE QUEEN       CLEAR     35  33  92 E3        30.03S
6HR MIN TEMP:  35; 6HR MAX TEMP:  57;

$$

ARZ056-057-069-270700-
SOUTHEAST ARKANSAS

CITY           SKY/WX    TMP DP  RH WIND       PRES   REMARKS
PINE BLUFF     CLEAR     48  35  60 NW6       30.02S
6HR MIN TEMP:  46; 6HR MAX TEMP:  52;

STUTTGART      CLEAR     43  36  75 W8        29.99F
6HR MIN TEMP:  43; 6HR MAX TEMP:  46;

MONTICELLO     CLEAR     47  34  60 W6        30.02S
6HR MIN TEMP:  47; 6HR MAX TEMP:  53;


$$





USA.gov is the U.S. government's official web portal to all federal, state and local government web resources and services.